McAllen, TX

2:09 PM CDT on June 25, 2017 (GMT -0500)
McAllen Miller International

Weather History for KMFE - December, 2013

Change the Weather History Date:

Wednesday, December 11, 2013

  Actual Average Record
Temperature  
Mean Temperature 49 °F 62 °F  
Max Temperature 51 °F 73 °F 90 °F (1949)
Min Temperature 47 °F 52 °F 28 °F (1915)
Degree Days  
Heating Degree Days 16 5  
Month to date heating degree days 105 50  
Since 1 July heating degree days 231 110  
Cooling Degree Days 0 3  
Month to date cooling degree days 20 35  
Year to date cooling degree days 4555 4404  
Moisture  
Dew Point 42 °F    
Average Humidity 72    
Maximum Humidity 93    
Minimum Humidity 50    
Precipitation  
Precipitation 0.01 in 0.04 in 1.16 in (1986)
Month to date precipitation 0.02 0.38  
Year to date precipitation 15.49 21.39  
Sea Level Pressure  
Sea Level Pressure 30.37 in    
Wind  
Wind Speed 8 mph (NNW)    
Max Wind Speed 14 mph    
Max Gust Speed 20 mph    
Visibility 6 miles    
Events Rain    
T = Trace of Precipitation, MM = Missing Value Source: NWS Daily Summary

Daily Weather History Graph

Daily Weather History Graph

Search for Another Location

Airport or City:

Trip Planner

Search our weather history database for the weather conditions in past years. The results will help you decide how hot, cold, wet, or windy it might be!

Date:

Astronomy

Dec. 11, 2013 Rise Set
Actual Time 7:10 AM CST 5:42 PM CST
Civil Twilight 6:45 AM CST 6:07 PM CST
Nautical Twilight 6:16 AM CST 6:36 PM CST
Astronomical Twilight 5:48 AM CST 7:04 PM CST
Moon 1:53 PM CST (12/11) 1:58 AM CST (12/11)
Length of Visible Light 11h 22m
Length of Day
10h 31m
Waxing Gibbous, 72% of the Moon is Illuminated
Dec 11
Waxing Gibbous
Dec 17
Full
Dec 25
Last Quarter
Jan 1
New
Jan 7
First Quarter

Hourly Weather History & Observations

Time (CST) Temp. Dew Point Humidity Pressure Visibility Wind Dir Wind Speed Gust Speed Precip Events Conditions
12:53 AM 48.0 °F 32.0 °F 54% 30.34 in 10.0 mi NNE 3.5 mph - N/A   Overcast
1:53 AM 48.0 °F 30.9 °F 52% 30.33 in 10.0 mi North 4.6 mph - N/A   Overcast
2:53 AM 48.0 °F 32.0 °F 54% 30.31 in 10.0 mi NNE 3.5 mph - N/A   Overcast
3:53 AM 48.0 °F 33.1 °F 56% 30.30 in 10.0 mi Calm Calm - N/A   Overcast
4:53 AM 48.0 °F 34.0 °F 58% 30.30 in 10.0 mi NNW 5.8 mph - N/A   Overcast
5:53 AM 48.0 °F 34.0 °F 58% 30.31 in 10.0 mi NNW 6.9 mph - N/A   Overcast
6:53 AM 48.0 °F 33.1 °F 56% 30.33 in 10.0 mi NNW 8.1 mph - N/A   Overcast
7:53 AM 48.0 °F 36.0 °F 63% 30.35 in 10.0 mi NNW 5.8 mph - N/A   Overcast
8:53 AM 48.9 °F 35.1 °F 59% 30.37 in 10.0 mi North 9.2 mph - N/A   Overcast
9:53 AM 48.9 °F 36.0 °F 61% 30.39 in 10.0 mi NNW 6.9 mph - N/A   Overcast
10:53 AM 50.0 °F 39.0 °F 66% 30.39 in 10.0 mi NNW 8.1 mph - N/A   Overcast
11:53 AM 50.0 °F 39.9 °F 68% 30.38 in 10.0 mi NNW 8.1 mph - N/A   Overcast
12:20 PM 50.0 °F 42.8 °F 76% 30.37 in 8.0 mi NNW 8.1 mph - N/A   Overcast
12:29 PM 48.2 °F 44.6 °F 87% 30.37 in 7.0 mi NNW 9.2 mph - N/A   Overcast
12:33 PM 48.2 °F 44.6 °F 87% 30.37 in 6.0 mi NNW 9.2 mph - N/A   Overcast
12:35 PM 48.2 °F 44.6 °F 87% 30.37 in 6.0 mi NNW 9.2 mph - N/A   Overcast
12:43 PM 48.2 °F 44.6 °F 87% 30.36 in 5.0 mi NNW 8.1 mph - N/A   Overcast
12:53 PM 48.0 °F 46.0 °F 93% 30.36 in 4.0 mi NNW 9.2 mph - N/A   Overcast
1:23 PM 48.2 °F 46.4 °F 93% 30.34 in 5.0 mi North 11.5 mph - 0.00 in Rain Light Rain
1:53 PM 48.9 °F 46.9 °F 93% 30.34 in 5.0 mi NNW 8.1 mph - 0.00 in   Overcast
2:53 PM 48.9 °F 46.9 °F 93% 30.33 in 4.0 mi North 10.4 mph - 0.00 in   Overcast
3:10 PM 48.2 °F 46.4 °F 93% 30.33 in 2.5 mi North 9.2 mph - 0.00 in Rain Light Rain
3:20 PM 48.2 °F 46.4 °F 93% 30.34 in 4.0 mi North 9.2 mph - 0.00 in Rain Light Rain
3:53 PM 48.0 °F 46.0 °F 93% 30.34 in 4.0 mi North 10.4 mph - 0.00 in Rain Light Rain
4:45 PM 48.2 °F 46.4 °F 93% 30.36 in 3.0 mi NNW 12.7 mph - 0.00 in Rain Light Rain
4:53 PM 48.0 °F 46.0 °F 93% 30.36 in 3.0 mi NNW 11.5 mph - 0.00 in Rain Light Rain
5:02 PM 48.2 °F 46.4 °F 93% 30.36 in 2.0 mi NNW 10.4 mph - 0.00 in Rain Light Rain
5:53 PM 48.0 °F 46.9 °F 96% 30.39 in 2.0 mi NNW 8.1 mph - 0.00 in   Overcast
6:53 PM 48.9 °F 46.9 °F 93% 30.41 in 2.0 mi NNW 10.4 mph - N/A   Overcast
7:00 PM 48.2 °F 46.4 °F 93% 30.42 in 8.0 mi NNW 6.9 mph - N/A   Overcast
7:53 PM 48.0 °F 46.0 °F 93% 30.44 in 6.0 mi NNW 10.4 mph - 0.00 in Rain Light Rain
8:53 PM 48.0 °F 46.9 °F 96% 30.45 in 5.0 mi NNW 8.1 mph - 0.00 in   Overcast
9:53 PM 48.9 °F 46.9 °F 93% 30.48 in 3.0 mi NNW 10.4 mph 19.6 mph 0.01 in Rain Light Rain
10:53 PM 48.9 °F 48.0 °F 97% 30.49 in 7.0 mi NNW 9.2 mph - 0.00 in   Overcast
11:53 PM 48.9 °F 48.0 °F 97% 30.49 in 7.0 mi NNW 9.2 mph - N/A   Overcast